Regional Weather Roundup
Issued by NWS Jackson, KY

Home | Current Version | Previous Version | Graphics & Text | Print | Product List | Glossary On
Versions: 1 2 3 4 5 6 7 8 9 10 11 12 13 14 15 16 17 18 19 20 21 22 23 24 25 26 27 28 29 30 31 32 33 34 35 36 37 38 39 40 41 42 43 44 45 46 47 48 49 50
000
ASUS43 KJKL 221710
RWRJKL

EAST KENTUCKY HOURLY WEATHER ROUNDUP
NATIONAL WEATHER SERVICE JACKSON KY
1200 PM EST SUN JAN 22 2017

NOTE: "FAIR" INDICATES FEW OR NO CLOUDS BELOW 12,000 FEET WITH
NO SIGNIFICANT WEATHER AND/OR OBSTRUCTIONS TO VISIBILITY.

* THESE REPORTS ARE NOT UNDER NWS QUALITY CONTROL AND MAY NOT
  REPORT WEATHER SUCH AS PRECIPITATION AND FOG.

KYZ079-080-083-085-087-088-110-112-115-119-120-221800
...EASTERN KENTUCKY...

CITY           SKY/WX    TMP DP  RH WIND       PRES   REMARKS
JACKSON        LGT RAIN  53  49  86 VRB3      29.49F
LONDON         CLOUDY    54  51  90 VRB5      29.47F
SOMERSET*      RAIN      52  52 100 E5        29.48F
MONTICELLO*    CLOUDY    54  52  93 N14       29.48F
WILLIAMSBURG*  PTSUNNY   54  54 100 SE5       29.47F
MIDDLESBORO*   DRIZZLE   53  53 100 CALM      29.50F
HARLAN APT*    CLOUDY    54  50  87 CALM      29.50F
PIKE CO APT*   CLOUDY    54  53  95 E7        29.51F
BIG SANDY APT* CLOUDY    56  53  91 CALM      29.51F
MOREHEAD APT*  CLOUDY    55  50  82 NE8       29.52F
ASHLAND*       CLOUDY    54  54 100 CALM      29.51F
$$

KYZ035-036-041-042-044-050-067-078-099-221800
...CENTRAL KENTUCKY...

CITY           SKY/WX    TMP DP  RH WIND       PRES   REMARKS
MT STERLING*   CLOUDY    54  50  87 E9        29.51F
FLEMING/MASON* CLOUDY    55  51  87 E12       29.52F
DANVILLE*      LGT RAIN  52  50  93 CALM      29.48F
LEXINGTON      CLOUDY    56  50  80 NE8       29.49F
FRANKFORT      CLOUDY    56  49  77 NE7       29.48F
LOUISVILLE     CLOUDY    56  49  77 NW3       29.48F
LEBANON*       PTSUNNY   54  52  94 NE3       29.48F
GLASGOW*       CLOUDY    57  51  82 E3        29.46F
BOWLING GREEN  CLOUDY    58  52  80 E3        29.46F
$$

KYZ091>093-OHZ055-061-077-WVZ005-015-034-035-042-221800
...SOUTHERN OHIO/WEST VIRGINIA...

CITY           SKY/WX    TMP DP  RH WIND       PRES   REMARKS
COVINGTON      CLOUDY    56  51  84 NE10      29.52F
COLUMBUS       CLOUDY    63  51  65 E8        29.58F
DAYTON         CLOUDY    56  51  84 E9        29.57F
WILMINGTON     MOSUNNY   57  52  83 NE9       29.55F
HUNTINGTON     CLOUDY    55  50  83 NE6       29.52F
CHARLESTON     CLOUDY    56  48  74 NE7       29.54F
PINEVILLE*     CLOUDY    54  52  94 MISG      29.62
BECKLEY        CLOUDY    50  48  93 SE7       29.58F
BLUEFIELD      CLOUDY    49  46  90 E7        29.58F FOG
LOGAN CO APT*  LGT RAIN  55  52  88 S10G16    29.55R
$$

VAZ002-007-008-TNZ017-027-036-066-071-221800
...SOUTHWEST VIRGINIA/EAST TENNESSEE...

CITY           SKY/WX    TMP DP  RH WIND       PRES   REMARKS
WISE*          CLOUDY    54  54 100 SE5       29.54F
JONESVILLE*      N/A     55  54  94 CALM      29.52F
ABINGDON*      CLOUDY    61  53  72 E5        29.53F
BRISTOL        CLOUDY    60  53  77 CALM      29.51F
MORRISTOWN*    CLOUDY    61  55  82 NE5       29.47F
SEVIERVILLE*   SUNNY     64  52  63 NW6       29.45F
KNOXVILLE      CLOUDY    66  51  58 SW20      29.45F
LAFOLLETTE*    CLOUDY    54  52  94 NE6       29.50F
OAK RIDGE      PTSUNNY   61  54  77 W6        29.48F
CROSSVILLE     CLOUDY    57  51  80 S8        29.48F
NASHVILLE      PTSUNNY   61  55  81 E7        29.45F
$$

...KEY TO REMARKS...
VSB - VISIBILITY IN MILES
WCI - WIND CHILL INDEX
HX  - HEAT INDEX

$$



USA.gov is the U.S. government's official web portal to all federal, state and local government web resources and services.